Погода в Днепрянах

Украина / Херсонская область     46˚44′50″N   33˚16′38″E
темп.,
°C
ветер,
м/с
пор.,
м/с
влажн.,
%
обл.,
%
осадки,
мм/ч
давл.,
гПа
погр.,
м
6 декабря, вс
вс623:00+1˚в7136256 0.0 1029621
02:00всв7135928 0.0 1029602
05:00−1˚всв714550 0.0 1029551
08:00−2˚всв714500 0.0 1029562
11:00+1˚в813440 0.0 1029671
14:00+2˚всв811400 0.0 1028791
17:00всв713410 0.0 1028664
20:00−2˚в814520 0.0 1029642
7 декабря, пн
пн723:00−3˚всв814620 0.0 1028636
02:00−3˚всв814620 0.0 1028652
05:00−4˚всв8146521 0.0 1027723
08:00−3˚всв8147341 0.0 1027754
11:00в101577100 0.1 1026733
14:00+1˚в91474100 0.1 1025807
17:00в9157498 0.0 1025784
20:00в9157695 0.0 1025769
8 декабря, вт
вт823:00в9147682 0.0 1024802
02:00в9137791 0.0 1024890
05:00в81381100 0.0 1023889
08:00+1˚в81379100 0.0 1023777
11:00+2˚в91375100 0.0 1023770
14:00+2˚в81273100 0.0 1022782
17:00+2˚в81377100 0.0 1022693
20:00+2˚в81478100 0.0 1022676
9 декабря, ср
ср923:00+2˚в81582100 0.0 1022602
02:00+3˚в81385100 0.2 1022652
05:00+3˚в81387100 1.3 1022618
08:00+3˚в71286100 1.4 1022484
11:00+4˚в71286100 0.9 1022528
14:00+5˚в71283100 1.1 1021538
17:00+5˚в7138498 0.5 1022469
20:00+5˚вюв7138594 0.6 1022524
10 декабря, чт
чт1023:00+6˚вюв7128498 1.4 1022413
02:00+6˚вюв6118599 1.6 1023317
05:00+6˚вюв6119096 0.0 1023324
08:00+6˚вюв6119196 0.0 1023366
11:00+8˚вюв8128796 0.0 1023490
14:00+9˚вюв8128098 0.0 1022598
17:00+6˚вюв7138294 0.0 1022530
20:00+4˚в7158383 0.0 1021489